Other Surface Observations
Issued by NWS

Home | Current Version | Previous Version | Text Only | Print | Product List | Glossary On
Versions: 1 2 3 4 5 6 7 8 9 10 11 12 13 14 15 16 17 18 19 20 21 22 23 24 25 26 27 28 29 30 31 32 33 34 35 36 37 38 39 40 41 42 43 44 45 46 47 48 49 50
659
SXUS52 KTAE 241305
OSOTAE
OSOTAE
North Florida/South Alabama/Southwest Georgia Weather Roundup
National Weather Service Tallahassee Florida
900 AM EDT FRI MAR 24 2017

Note: "fair" indicates few or no clouds below 12,000 feet with no
significant weather and/or obstructions to visibility.

!FLZ017-115-028-034-025-241400
...North Florida...

CITY           SKY/WX    TMP DP  RH WIND       PRES   REMARKS
TALLAHASSEE    SUNNY     60  54  80 E12       30.37S
APALACHICOLA   MOSUNNY   65  61  87 E10G22    30.33R
PERRY          SUNNY     58  55  89 CALM      30.39R
CROSS CITY       N/A     59  55  88 E6        30.37S
JACKSONVILLE   MOSUNNY   61  59  93 NE6       30.40S
$$

!FLZ112-006-005-002-011-241400
...Florida Panhandle...

CITY           SKY/WX    TMP DP  RH WIND       PRES   REMARKS
MARIANNA       CLOUDY    59  55  87 E6        30.36R
BONIFAY        NOT AVBL
PANAMA CITY NW FAIR      60  55  83 E10       30.34R
TYNDALL AFB    MOSUNNY   60  56  85 E9        30.34R
TYND DRONE APT FAIR      60  58  91 E9G22     30.34R
DE FUNIAK SPR  CLOUDY    61  53  76 SE8       30.36R
EGLIN AFB      CLOUDY    62  56  80 SE10      30.33R
DESTIN         CLOUDY    64  60  87 E7        30.33R
HURLBURT       NOT AVBL
CRESTVIEW      CLOUDY    62  55  77 SE7       30.35R
PENSACOLA      CLOUDY    67  60  78 E17G23    30.30R
$$

!ALZ063-066-241400
...South Alabama...

CITY           SKY/WX    TMP DP  RH WIND       PRES   REMARKS
DOTHAN         CLOUDY    57  55  93 E9        30.40R
OZARK CAIRNS   CLOUDY    59  53  80 E9        30.36R
FT RUCKER HELI CLOUDY    59  53  83 E5        30.37R
RUCKER HELI 3  CLOUDY    58  53  83 SE7       30.37R
RUCKER HELI 2  CLOUDY    59  54  82 E8        30.37R
FLORALA APT    CLOUDY    59  53  80 VRB5      30.37R
ANDALUSIA      CLOUDY    61  53  75 MISG      30.35R
TROY           CLOUDY    59  53  80 SE6       30.37R
EUFALA         CLOUDY    60  52  74 E8        30.39R
MOBILE         CLOUDY    69  61  75 SE16      30.26R
$$

!GAZ120>161-241400
...Southwest and South Central Georgia...

CITY           SKY/WX    TMP DP  RH WIND       PRES   REMARKS
THOMASVILLE    CLOUDY    55  55 100 E5        30.41R
BAINBRIDGE     SUNNY     57  54  88 E8        30.39S
MOODY AFB      PTSUNNY   55  54  94 NE5       30.40R
VALDOSTA       MOSUNNY   55  53  93 E6        30.41R FOG
MOULTRIE         N/A     55  54  94 E6        30.41S
BLAKELY        CLOUDY    61  54  77 E6        30.40R
ALBANY         CLOUDY    57  54  89 E6        30.43R
TIFTON         FAIR      53  53 100 E7        30.42R
FITZGERALD     FAIR      54  52  93 E6        30.45S
CORDELE        CLOUDY    58  52  81 E5        30.44R
AMERICUS       CLOUDY    54  48  82 E5        30.44R
HOMERVILLE     CLOUDY    54  54 100 NE6       30.43S FOG
$$

!GMZ750-755-770-775-241400
...Coastal and Buoy Obs...

STATION/POSITION TIME  TEMP    WIND        PRES    VSBY  WAVE
                       AIR SEA DIR/SP/G                  HT/PER
                 (UTC) (F)     (DEG/KT/KT) (MB)    (MI)  (FT/S)
KEATON BEACH     1200   55      70/  8/  9 1027.7R
CEDAR KEY        1200   61      70/ 14/ 15 1028.0R
C TOWER          1200   65     110/ 23/ 26 1027.2R
APALACHICOLA BUO 1150   68 68  110/ 19/ 23 1025.4          5/ 6
PANAMA CITY BUOY 1150   70 71              1025.0          8/ 7
MOBILE BUOY      1250   72 73  120/ 21/ 27 1023.5R         8/ 8
ORANGE BCH AL BU 1150   69 69  130/ 19/ 23 1024.2          7/ 8
$$




USA.gov is the U.S. government's official web portal to all federal, state and local government web resources and services.